Location: Unspecified
(47.4992°N, 121.7766°W)
Time: 17:33:20
(UTC-08:00)

Cosmos 2058 - Pass Details

Date: 28 January 2021
Orbit: 561 x 584 km, 82.5° (Epoch: 05 March)

Event Time Altitude Azimuth Distance (km) Brightness Sun altitude
Rises 05:36:24 0° 3° (N) 2,778 6.4 -20.5°
Reaches altitude 10° 05:39:07 10° 22° (NNE) 1,872 5.7 -20.0°
Maximum altitude 05:42:06 19° 68° (ENE) 1,372 5.6 -19.5°
Drops below altitude 10° 05:45:04 10° 115° (ESE) 1,854 6.6 -19.0°
Sets 05:47:45 0° 133° (SE) 2,743 7.3 -18.6°
